Weather History for Kansas City, MO

Change the Weather History Date:

Friday, February 15, 2013

  Actual Average Record
Temperature  
Mean Temperature 30 °F -  
Max Temperature 37 °F 44 °F 66 °F (2000)
Min Temperature 23 °F 28 °F 3 °F (2007)
Degree Days  
Heating Degree Days 35    
Moisture  
Dew Point 18 °F    
Average Humidity 64    
Maximum Humidity 93    
Minimum Humidity 30    
Precipitation  
Precipitation 0.02 in - - ()
Sea Level Pressure  
Sea Level Pressure 30.32 in    
Wind  
Wind Speed 9 mph (NNW)    
Max Wind Speed 18 mph    
Max Gust Speed 34 mph    
Visibility 7 miles    
Events Fog , Snow    
Averages and records for this station are not official NWS values.
T = Trace of Precipitation, MM = Missing Value Source: NWS Daily Summary

Daily Weather History Graph

Daily Weather History Graph

Search for Another Location

Airport:

Trip Planner

Search our weather history database for the weather conditions in past years. The results will help you decide how hot, cold, wet, or windy it might be!

Date:

Astronomy

Feb. 15, 2013 Rise Set
Actual Time 7:09 AM CST 5:55 PM CST
Civil Twilight 6:42 AM CST 6:23 PM CST
Nautical Twilight 6:10 AM CST 6:54 PM CST
Astronomical Twilight 5:39 AM CST 7:25 PM CST
Moon 9:49 AM CST (2/15) 11:54 PM CST (2/15)
Length of Visible Light 11h 41m
Length of Day
10h 46m
Waxing Crescent, 30% of the Moon is Illuminated
Feb 15
Waxing Crescent
Feb 17
First Quarter
Feb 25
Full
Mar 4
Last Quarter
Mar 11
New

Hourly Weather History & Observations

Time (CST) Temp. Windchill Dew Point Humidity Pressure Visibility Wind Dir Wind Speed Gust Speed Precip Events Conditions
12:54 AM 36.0 °F 29.0 °F 26.1 °F 67% 30.19 in 10.0 mi WNW 9.2 mph - N/A   Overcast
1:29 AM 35.6 °F 29.2 °F 26.6 °F 70% 30.20 in 10.0 mi WNW 8.1 mph - N/A   Overcast
1:54 AM 34.0 °F 23.0 °F 25.0 °F 70% 30.23 in 8.0 mi North 18.4 mph 34.5 mph 0.00 in Snow Light Snow
2:05 AM 33.8 °F 24.3 °F 23.0 °F 65% 30.23 in 10.0 mi North 13.8 mph 21.9 mph 0.00 in   Overcast
2:12 AM 33.8 °F 25.3 °F 21.2 °F 60% 30.23 in 10.0 mi North 11.5 mph 19.6 mph 0.00 in   Overcast
2:54 AM 33.1 °F 23.0 °F 17.1 °F 52% 30.26 in 10.0 mi NNW 15.0 mph 23.0 mph 0.00 in   Overcast
3:54 AM 30.9 °F 22.8 °F 15.1 °F 52% 30.29 in 10.0 mi NW 9.2 mph - N/A   Overcast
4:54 AM 28.0 °F 20.8 °F 12.9 °F 53% 30.32 in 10.0 mi NNW 6.9 mph 19.6 mph N/A   Partly Cloudy
5:54 AM 25.0 °F 14.2 °F 10.9 °F 55% 30.34 in 10.0 mi NNW 11.5 mph - N/A   Clear
6:54 AM 24.1 °F 18.2 °F 10.0 °F 55% 30.37 in 10.0 mi NNW 4.6 mph - N/A   Clear
7:54 AM 23.0 °F 14.7 °F 15.1 °F 72% 30.39 in 10.0 mi NW 6.9 mph - N/A   Clear
8:54 AM 25.0 °F 14.8 °F 14.0 °F 63% 30.40 in 10.0 mi NNW 10.4 mph - N/A   Clear
9:54 AM 28.0 °F 20.0 °F 12.0 °F 51% 30.40 in 10.0 mi NNW 8.1 mph - N/A   Clear
10:54 AM 30.0 °F 21.1 °F 9.0 °F 41% 30.40 in 10.0 mi NW 10.4 mph - N/A   Clear
11:54 AM 34.0 °F 25.0 °F 5.0 °F 30% 30.38 in 10.0 mi WNW 12.7 mph 17.3 mph N/A   Clear
12:54 PM 36.0 °F 28.0 °F 10.0 °F 34% 30.35 in 10.0 mi NW 11.5 mph 18.4 mph N/A   Clear
1:54 PM 37.0 °F 29.8 °F 12.0 °F 36% 30.33 in 10.0 mi NNW 10.4 mph 20.7 mph N/A   Clear
2:54 PM 37.9 °F 29.6 °F 10.9 °F 33% 30.31 in 10.0 mi NW 13.8 mph 20.7 mph N/A   Clear
3:54 PM 37.0 °F 29.3 °F 12.0 °F 36% 30.32 in 10.0 mi North 11.5 mph - N/A   Clear
4:54 PM 36.0 °F 29.0 °F 12.0 °F 37% 30.32 in 10.0 mi NW 9.2 mph - N/A   Partly Cloudy
5:54 PM 34.0 °F 28.8 °F 12.0 °F 40% 30.32 in 10.0 mi North 5.8 mph - N/A   Clear
6:54 PM 32.0 °F 27.5 °F 12.9 °F 45% 30.32 in 10.0 mi North 4.6 mph - N/A   Mostly Cloudy
7:54 PM 32.0 °F 23.0 °F 12.9 °F 45% 30.32 in 10.0 mi NE 11.5 mph - N/A   Overcast
8:54 PM 30.0 °F 20.5 °F 19.0 °F 64% 30.35 in 1.2 mi NNE 11.5 mph 19.6 mph 0.00 in Snow Light Snow
8:58 PM 28.4 °F 19.1 °F 21.2 °F 74% 30.32 in 0.5 mi NNE 10.4 mph 19.6 mph 0.00 in Snow Snow
9:07 PM 28.4 °F 20.4 °F 23.0 °F 80% 30.32 in 0.8 mi NNE 8.1 mph - 0.00 in Snow Light Snow
9:16 PM 26.6 °F 18.2 °F 23.0 °F 86% 30.32 in 0.5 mi NNE 8.1 mph - 0.00 in Fog , Snow Snow
9:38 PM 26.6 °F 21.2 °F 24.8 °F 93% 30.32 in 1.0 mi NE 4.6 mph - 0.01 in Snow Light Snow
9:45 PM 26.6 °F - 24.8 °F 93% 30.32 in 2.0 mi Calm Calm - 0.01 in Snow Light Snow
9:54 PM 27.0 °F - 24.1 °F 89% 30.35 in 4.0 mi Calm Calm - 0.01 in Snow Light Snow
10:04 PM 26.6 °F - 24.8 °F 93% 30.32 in 1.5 mi Calm Calm - 0.00 in Snow Light Snow
10:11 PM 26.6 °F - 24.8 °F 93% 30.31 in 0.5 mi Calm Calm - 0.00 in Fog , Snow Snow
10:22 PM 26.6 °F 22.6 °F 23.0 °F 86% 30.31 in 0.5 mi East 3.5 mph - 0.01 in Fog , Snow Snow
10:29 PM 26.6 °F - 23.0 °F 86% 30.31 in 1.0 mi Calm Calm - 0.01 in Snow Light Snow
10:36 PM 26.6 °F - 23.0 °F 86% 30.31 in 1.8 mi Calm Calm - 0.01 in Snow Light Snow
10:43 PM 26.6 °F - 23.0 °F 86% 30.31 in 2.0 mi Calm Calm - 0.01 in Snow Light Snow
10:54 PM 27.0 °F - 23.0 °F 85% 30.33 in 4.0 mi Calm Calm - 0.01 in Snow Light Snow
11:54 PM 27.0 °F 23.0 °F 21.9 °F 81% 30.33 in 10.0 mi North 3.5 mph - 0.00 in   Overcast